Regional Weather Roundup
Issued by NWS Sioux Falls, SD

Home | Current Version | Previous Version | Text Only | Print | Product List | Glossary Off
Versions: 1 2 3 4 5 6 7 8 9 10 11 12 13 14 15 16 17 18 19 20 21 22 23 24 25 26 27 28 29 30 31 32 33 34 35 36 37 38 39 40 41 42 43 44 45 46 47 48 49 50

000
ASUS43 KFSD 240402
RWRFSD

WEATHER ROUNDUP FOR SE SOUTH DAKOTA/SW MINNESOTA/NW IOWA
NATIONAL WEATHER SERVICE SIOUX FALLS SD
1100 PM CDT WED APR 23 2014

NOTE: "FAIR" INDICATES FEW OR NO CLOUDS BELOW 12,000 FEET WITH NO
SIGNIFICANT WEATHER AND OR OBSTRUCTIONS TO VISIBILITY.


SDZ038>040-050-052>070-240500-
SOUTHEAST SOUTH DAKOTA

CITY           SKY/WX    TMP DP  RH WIND       PRES   REMARKS
CHAMBERLAIN      N/A     56  43  61 N18G24    29.67R
HURON          MOCLDY    53  40  61 SE10      29.66R
MADISON        CLOUDY    45  39  81 SE21G28   29.67F
MITCHELL       CLOUDY    54  42  64 SE21      29.63R
SIOUX FALLS    CLOUDY    47  39  74 E17G26    29.69F
WINNER         FAIR      54  37  52 NW14      29.72R
YANKTON        CLOUDY    52  45  76 E10G16    29.65R
$$

MNZ071-072-080-081-089-090-097-098-240500-
SOUTHWEST MINNESOTA

CITY           SKY/WX    TMP DP  RH WIND       PRES   REMARKS
FAIRMONT       CLOUDY    45  36  70 SE15      29.83F
JACKSON        LGT RAIN  43  37  81 E14       29.80S
LUVERNE        CLOUDY    46  37  71 SE15G24   29.71F
MARSHALL       CLOUDY    45  36  70 SE16      29.77S
MONTEVIDEO     LGT RAIN  43  39  87 SE20      29.82F
PIPESTONE      CLOUDY    45  37  76 SE17      29.70F
REDWOOD FALLS  CLOUDY    44  37  76 SE15G24   29.82S
TRACY          CLOUDY    45  38  77 SE13G21   29.78S
WINDOM         LGT RAIN  43  39  87 SE17      29.79F
WORTHINGTON    CLOUDY    43  36  75 E13       29.79S
$$

IAZ001>003-012>014-020>022-031-032-NEZ013-014-SDZ071-240500-
NORTHWEST IOWA

CITY           SKY/WX    TMP DP  RH WIND       PRES   REMARKS
CHEROKEE       LGT RAIN  46  40  79 E9        29.75S
DENISON        CLOUDY    50  43  76 E16G24    29.71F
ESTHERVILLE    CLOUDY    43  40  89 SE21      29.78F
SHELDON        CLOUDY    46  41  81 SE18      29.72F
SIOUX CITY     LGT RAIN  52  48  86 E20       29.65F
SPENCER        LGT RAIN  44  40  85 SE20      29.74F
STORM LAKE     CLOUDY    46  43  87 SE22      29.76S
$$

ABBREVIATIONS USED IN REMARKS
   TC - TEMPERATURE IN CELSIUS
  WCI - WIND CHILL INDEX
   HX - HEAT INDEX
  VSB - VISIBILITY




USA.gov is the U.S. government's official web portal to all federal, state and local government web resources and services.